GFSNGP_prec_cthk_021.txt.gz
RH
27 24 23 25 26 28 32 37 46 46 51 61 62 65 70 69 69 69 71 67 66 65 60 54 54 54 49 43 42 41 43 47 49 46 57 61 68 83 80 86 80 74 67 64
25 29 30 27 29 34 33 37 41 47 55 60 60 62 64 67 70 71 72 68 63 56 54 54 52 49 45 45 42 43 46 47 43 48 60 64 71 90 95 96 89 80 70 76
41 36 36 44 36 32 34 39 43 49 53 56 59 62 67 72 72 70 65 62 56 55 56 53 47 45 45 45 45 46 48 44 40 44 53 60 67 87 84 97 85 72 79 84
44 39 34 35 29 31 35 40 43 53 58 60 64 67 70 72 71 67 63 58 56 54 49 47 45 44 43 43 43 44 39 29 30 36 44 51 57 87 97 97 89 74 88 72
48 48 34 31 33 35 39 43 47 53 60 66 72 75 73 73 70 65 60 55 53 51 47 42 40 39 40 39 36 31 29 34 37 42 44 49 54 63 95 87 82 85 66 57
51 49 48 38 38 38 41 51 52 54 63 69 69 76 73 70 64 63 60 55 51 44 39 38 36 36 37 33 29 31 37 43 51 50 53 56 64 67 76 80 72 51 53 53
51 51 43 32 38 37 50 47 56 60 66 71 75 76 73 68 68 63 56 53 48 40 38 36 35 31 32 32 35 41 46 48 48 57 62 72 84 87 73 59 49 52 52 53
51 55 53 34 39 42 41 48 56 65 72 74 78 76 72 70 65 60 56 50 40 37 35 32 31 33 33 34 37 43 46 45 54 66 75 83 84 66 52 49 50 51 52 52
43 42 36 40 42 43 43 51 64 72 77 78 76 75 71 69 62 56 51 41 38 37 35 34 34 34 36 40 41 42 43 50 64 71 73 70 52 45 45 48 51 50 51 51
45 43 45 49 46 46 52 63 72 80 82 82 79 73 69 64 55 48 40 39 38 35 34 31 33 34 36 39 40 44 49 58 66 67 63 50 47 47 43 44 49 51 52 51
44 44 45 48 47 53 63 73 81 85 84 75 73 69 64 53 45 40 37 34 32 29 28 28 28 32 37 42 45 50 54 62 63 58 46 40 42 42 41 44 50 51 52 52
47 42 42 48 56 66 77 84 84 84 78 74 69 62 51 43 38 35 34 31 27 25 26 26 29 37 40 46 53 57 59 64 60 48 42 43 44 43 43 46 53 52 52 53
42 44 49 61 72 78 81 82 81 78 74 69 62 52 41 34 36 34 30 28 26 25 27 29 34 41 47 56 59 61 61 63 59 49 44 44 43 43 40 47 55 53 54 54
47 53 65 74 80 81 84 82 78 74 70 62 50 39 35 36 34 31 28 27 25 24 28 32 38 45 54 59 63 65 64 63 55 52 46 45 44 47 47 51 53 54 55 55
60 69 77 82 86 85 80 76 73 70 62 49 41 37 36 35 33 30 28 27 25 26 28 32 40 50 58 62 64 66 66 66 55 53 48 48 47 48 50 56 57 58 58 56
81 84 85 87 89 79 76 75 73 64 51 43 38 37 37 36 33 30 28 27 27 26 30 34 44 55 63 64 65 69 69 64 57 56 51 50 49 50 53 58 60 60 57 57
88 90 90 83 80 79 79 75 64 52 44 41 40 40 38 36 32 28 26 27 28 32 37 41 47 59 65 68 69 73 69 63 61 59 55 52 55 55 58 59 61 61 57 57
91 89 85 84 84 81 76 64 53 46 45 44 42 41 39 36 31 28 27 27 28 34 42 49 54 63 71 72 73 71 61 55 60 61 59 54 58 60 61 59 62 60 60 59
88 86 88 86 81 75 62 52 49 47 44 42 41 40 37 33 32 32 33 36 39 40 44 54 59 66 74 78 76 71 59 59 64 65 62 59 58 61 60 62 63 59 59 59
83 83 83 79 67 57 52 51 48 44 42 41 39 35 33 34 35 39 40 42 50 54 56 61 63 69 78 82 82 75 70 68 69 65 64 60 60 59 60 63 61 60 60 62
83 79 74 64 57 55 53 47 42 41 39 36 34 36 37 38 41 45 48 48 55 61 66 69 71 74 81 85 83 81 80 77 73 69 61 56 55 58 63 63 64 62 64 64
76 68 63 60 56 48 43 41 38 34 32 34 39 42 44 45 51 52 60 65 61 67 70 75 76 81 84 88 85 85 87 87 83 71 58 54 55 62 65 64 64 66 68 70
67 61 55 48 43 39 35 32 32 34 34 40 44 52 59 60 62 63 58 71 73 75 77 78 79 84 89 89 91 91 93 93 93 87 64 58 60 63 66 69 70 73 74 76
53 46 42 40 36 32 31 32 35 40 44 46 55 65 68 65 60 71 75 75 77 78 79 78 81 83 87 91 92 93 95 96 97 97 84 64 59 64 66 68 74 80 81 82
41 38 34 33 32 33 35 37 39 44 50 55 69 77 80 77 77 75 80 80 83 82 80 80 82 85 87 88 92 96 97 97 96 95 87 79 68 67 70 72 76 79 83 88
34 33 33 35 38 40 43 46 49 53 60 67 74 84 83 78 79 83 86 87 86 85 82 81 83 85 88 89 91 93 96 98 99 99 95 82 78 75 75 77 80 85 89 91
38 38 39 41 46 52 55 58 64 66 67 69 69 78 81 82 82 84 87 86 83 83 83 82 83 84 86 87 89 92 94 97 98 98 98 89 83 82 84 88 90 92 94 96

GFSNGP_prec_cthk_024.txt.gz
RH
27 26 24 25 25 26 28 32 39 36 41 46 52 55 58 62 65 67 70 71 71 68 60 55 53 51 49 40 35 37 40 42 46 52 49 43 38 42 46 50 59 82 95 89
24 28 29 26 25 29 31 29 34 40 47 50 54 59 63 67 70 73 75 76 68 62 58 55 54 48 39 37 40 42 43 44 42 40 29 27 32 34 38 48 58 78 98 89
31 36 34 35 29 29 29 31 32 38 41 49 54 59 64 69 72 74 74 69 64 59 55 53 48 42 38 39 40 39 37 34 29 26 29 31 33 37 48 56 63 98 96 94
38 36 28 27 27 27 30 32 35 41 46 51 56 63 68 70 72 72 69 66 60 56 54 47 41 38 39 39 37 34 30 27 29 32 32 32 41 46 54 70 74 80 82 69
38 44 29 28 30 30 31 34 38 43 48 52 56 63 69 72 71 72 69 62 58 55 47 42 39 41 38 35 32 29 28 32 34 36 35 40 54 62 69 75 74 63 57 53
49 36 34 27 31 31 32 41 39 40 46 53 59 67 70 71 72 71 66 62 59 50 44 42 43 37 34 29 30 33 35 36 39 36 39 52 63 74 79 68 57 55 52 49
51 48 38 29 33 33 44 36 38 41 48 56 64 67 71 72 75 68 65 63 53 46 45 41 36 32 31 34 37 39 38 38 38 40 47 59 67 78 66 52 48 48 50 50
52 53 43 29 36 38 36 39 41 45 52 60 69 73 74 75 72 69 65 53 48 47 39 37 34 35 35 35 34 31 36 41 42 44 54 61 66 61 50 48 48 48 49 48
38 38 30 32 33 36 40 44 45 50 56 69 74 74 77 75 72 66 54 50 46 39 36 35 34 33 31 30 29 33 40 46 48 50 58 60 60 51 49 49 46 44 48 50
41 34 35 37 40 44 50 49 53 58 67 75 81 82 77 72 65 56 51 44 38 35 34 33 33 31 31 31 34 39 46 52 55 53 56 53 48 45 45 45 44 43 50 50
44 42 44 45 49 54 53 55 62 67 78 81 80 77 73 66 59 52 46 38 36 34 32 32 30 29 28 30 37 45 53 58 59 55 53 50 49 47 45 44 43 45 51 52
42 40 43 47 50 50 55 63 71 77 77 78 77 74 69 59 50 43 38 36 35 34 32 30 29 27 29 33 41 50 55 60 64 59 52 50 52 49 46 44 45 50 53 54
40 41 43 47 53 61 69 74 77 81 82 78 75 71 59 49 41 39 39 38 36 34 32 30 28 27 30 36 45 51 56 62 66 63 55 50 51 50 46 47 48 53 55 55
46 49 58 61 67 72 76 84 85 84 81 77 73 63 49 42 41 41 41 39 37 35 32 31 29 30 35 41 49 54 57 63 68 65 56 52 52 52 49 47 48 54 57 57
58 59 62 71 77 83 91 86 86 82 79 77 68 49 44 43 44 43 41 39 36 33 31 30 31 35 40 46 53 58 61 66 70 66 61 59 56 54 52 51 52 56 59 58
67 73 78 82 88 90 89 87 83 83 82 69 50 47 46 46 44 43 42 39 34 29 29 31 34 40 46 52 58 65 67 70 71 64 59 61 60 55 58 56 58 58 61 58
80 84 87 93 91 92 85 85 87 83 68 53 51 50 48 47 44 42 39 34 31 32 33 36 41 47 54 58 63 70 73 73 67 60 60 62 65 62 63 61 61 60 61 58
90 94 92 92 90 85 88 88 79 64 56 54 52 49 47 44 41 37 32 31 33 39 43 47 52 55 60 64 69 76 78 73 65 64 67 67 66 64 64 64 60 62 61 60
92 94 94 90 93 89 83 71 63 58 56 54 49 45 43 40 36 33 33 35 40 42 45 53 59 64 68 71 74 81 82 77 72 70 71 68 67 67 63 60 61 66 62 62
92 95 92 87 86 75 68 62 59 58 52 46 42 39 36 35 35 36 39 44 52 52 53 56 61 69 74 77 80 86 87 83 81 81 78 73 66 62 60 58 64 66 64 66
82 86 86 78 72 66 63 60 54 47 43 41 37 32 33 37 41 47 49 49 55 60 63 64 68 72 76 78 83 88 87 87 90 91 91 85 70 59 56 59 64 66 68 68
85 81 76 70 65 60 54 48 44 40 36 35 35 37 39 42 48 52 62 66 60 66 68 71 74 74 74 78 82 87 91 90 92 95 96 97 90 67 59 60 64 66 66 71
78 71 65 59 53 48 44 39 35 34 35 39 42 45 47 51 60 66 59 67 65 68 75 77 81 78 77 78 81 86 88 90 93 95 96 98 98 92 69 64 66 68 71 75
68 60 53 48 43 39 36 34 36 38 40 42 45 51 58 62 67 78 77 74 70 72 78 79 80 82 79 80 83 86 88 90 92 95 97 99 98 94 86 74 69 71 75 80
49 45 42 39 38 37 36 36 38 42 44 46 51 58 64 69 67 68 75 78 78 77 80 80 79 79 83 85 85 87 89 90 92 95 97 98 99 98 95 84 78 77 79 82
42 41 41 41 41 42 46 47 47 49 52 54 57 62 63 71 76 75 78 85 85 84 83 83 83 82 80 79 80 81 83 86 90 91 92 94 96 98 98 91 87 86 88 90
45 48 51 53 57 59 60 60 59 58 64 66 63 68 73 80 80 78 81 91 92 89 88 85 84 80 76 72 70 68 68 66 69 77 85 90 94 97 98 97 94 94 94 98

GFSNGP_prec_cthk_027.txt.gz
RH
31 28 24 22 24 28 29 29 33 28 32 32 38 43 47 51 57 61 65 67 68 70 75 70 65 60 53 49 46 44 40 37 39 37 32 32 32 31 25 30 39 44 55 69
30 32 30 25 24 26 26 26 30 29 33 35 39 44 49 55 60 63 67 68 72 71 70 69 63 55 50 48 44 40 37 33 31 31 32 33 31 24 27 36 43 52 66 77
29 35 29 27 23 26 25 27 28 36 32 38 43 46 50 55 59 65 70 72 70 69 67 64 58 52 48 44 41 38 34 33 34 36 36 34 27 27 34 46 57 64 63 60
34 33 29 21 23 25 26 27 29 31 32 36 41 45 49 55 61 67 70 68 68 68 65 59 54 50 44 43 39 36 35 36 40 40 34 29 30 35 44 54 62 67 58 51
40 41 27 22 26 27 28 28 31 32 36 40 44 49 52 59 63 65 66 66 68 68 63 57 50 44 44 39 35 34 36 39 40 33 32 34 37 47 54 62 71 62 53 50
50 36 32 21 26 26 28 37 30 34 37 42 47 54 54 59 65 69 68 70 70 66 61 50 47 48 39 36 36 37 38 36 35 36 37 38 41 52 62 67 63 54 49 49
53 44 34 23 29 30 38 29 31 33 37 42 48 52 56 65 72 73 72 73 69 63 51 49 46 39 37 36 35 34 35 38 39 40 39 42 46 54 58 57 54 51 49 49
53 54 40 24 32 35 30 28 34 38 41 47 52 57 66 72 72 75 77 73 66 55 52 46 39 36 35 34 35 36 38 40 43 43 44 47 50 54 54 53 53 52 48 46
40 36 26 28 30 32 34 35 39 45 51 56 57 65 71 73 77 79 76 70 59 52 45 40 37 36 36 36 37 37 39 43 46 50 52 52 53 52 52 52 51 47 45 46
39 31 33 35 36 37 40 43 48 55 59 60 66 69 82 82 78 78 71 61 50 45 40 39 37 37 37 36 34 36 40 45 49 53 58 55 54 50 49 55 51 45 45 47
44 40 42 41 40 42 45 50 56 59 60 66 77 88 79 80 81 75 61 51 44 41 41 39 38 37 36 34 35 36 40 48 53 58 63 61 59 53 51 55 53 48 48 49
43 37 39 39 42 46 51 53 55 62 69 82 82 81 81 83 78 62 52 44 44 43 42 40 39 37 35 32 34 37 41 50 56 61 67 68 61 55 53 55 55 51 50 52
40 42 43 45 47 50 55 63 69 76 82 88 84 85 83 78 66 53 47 47 46 44 43 41 38 34 32 31 35 40 47 53 60 64 70 70 64 59 57 58 59 55 52 56
48 52 54 55 59 65 68 75 82 84 89 85 85 83 79 69 54 50 50 48 46 44 41 38 33 29 31 34 37 45 53 58 64 69 72 73 62 60 61 56 59 57 57 60
55 56 58 62 67 73 80 84 83 91 89 86 83 81 72 56 52 52 50 48 45 42 38 30 27 29 34 38 44 53 59 64 69 76 76 73 64 58 60 59 59 59 59 61
57 62 67 75 82 86 87 94 95 90 86 85 83 71 57 54 53 52 48 44 40 35 29 29 32 37 43 47 54 60 65 70 76 81 75 68 69 67 67 67 62 62 61 61
70 74 82 84 89 94 99 98 90 90 94 83 66 60 56 54 51 47 44 41 34 31 31 35 39 44 49 54 60 65 71 76 82 82 74 70 69 71 71 72 67 65 64 62
86 90 90 90 97 97 92 93 96 89 74 67 62 58 56 50 45 43 38 33 32 36 42 45 47 51 54 59 64 70 77 81 87 84 77 74 73 72 70 70 70 64 61 63
88 92 93 96 97 98 97 88 75 71 67 64 61 57 49 45 41 35 34 35 38 40 45 52 55 58 59 62 68 73 79 84 90 89 86 85 82 77 71 66 66 63 59 65
94 95 95 96 93 82 75 72 69 67 64 60 52 47 43 37 37 36 36 40 49 51 53 57 58 62 64 66 70 74 81 84 88 90 88 90 93 91 84 70 62 61 61 66
86 93 86 81 78 74 72 68 64 59 53 49 45 42 39 37 38 41 42 46 55 62 63 64 66 66 72 74 76 77 79 84 88 90 90 94 95 96 97 95 72 62 61 65
84 84 82 78 73 70 65 61 56 50 46 43 40 38 39 39 43 48 55 61 63 68 64 64 66 69 75 79 81 81 80 83 88 93 95 94 95 97 98 99 98 79 64 65
83 81 77 72 66 60 53 48 46 43 41 38 38 41 44 45 48 55 55 64 67 66 64 64 71 73 74 80 80 83 86 88 90 93 94 95 95 96 97 98 99 95 84 72
75 68 61 54 49 47 44 42 41 39 39 42 45 50 54 54 50 58 57 60 68 72 71 68 77 79 78 78 79 82 85 87 88 90 92 95 96 97 96 97 97 98 97 89
53 50 48 46 43 41 41 43 44 47 51 52 53 55 58 60 60 58 63 65 70 71 73 72 83 85 82 83 85 83 79 74 73 75 80 84 86 86 89 92 93 97 99 96
41 41 42 45 48 50 52 53 51 51 54 52 47 47 48 52 54 55 57 61 63 69 75 80 88 86 82 83 80 75 69 63 60 60 61 66 74 78 83 89 93 93 97 97
42 45 45 46 50 52 52 52 49 42 40 39 38 40 46 47 51 57 64 68 74 80 83 88 91 87 82 79 74 64 55 51 51 54 55 62 66 75 82 85 89 94 94 97

GFSNGP_prec_cthk_030.txt.gz
RH
36 34 29 24 25 28 26 26 29 24 28 25 29 33 36 41 47 50 54 58 62 63 64 70 71 68 64 63 60 55 52 48 41 35 34 34 34 31 28 29 32 38 41 48
35 37 34 27 24 24 25 25 29 27 26 24 27 31 37 40 45 49 53 57 60 64 74 73 69 69 67 62 56 52 46 40 36 36 37 36 32 31 33 34 37 44 50 54
35 36 31 29 23 24 24 25 24 28 23 28 30 32 36 41 47 51 54 58 62 68 68 66 69 69 63 57 52 47 42 37 39 40 37 33 34 36 37 36 42 50 56 61
36 33 31 18 20 22 24 24 24 25 27 30 30 34 37 42 47 53 57 60 64 65 68 68 70 65 60 54 49 41 37 41 40 37 34 36 38 37 39 43 50 59 63 60
39 39 25 18 21 26 28 25 26 28 31 31 33 36 37 41 49 56 58 62 67 69 69 71 70 63 55 49 41 39 41 38 36 36 36 37 37 37 42 47 55 60 59 54
50 38 33 22 23 25 26 34 24 27 32 33 36 43 35 44 54 60 62 67 69 71 72 76 67 57 49 41 40 40 38 36 37 38 38 36 37 40 45 50 53 55 54 53
55 45 34 23 26 28 35 29 26 27 31 36 39 37 40 47 53 56 65 69 73 75 78 72 61 51 43 40 41 40 38 37 37 38 37 39 41 46 49 53 51 53 55 55
54 54 42 26 31 34 30 27 28 32 35 38 41 45 47 52 57 67 72 76 79 81 75 63 51 44 43 43 41 38 37 36 37 37 40 44 47 52 56 57 54 53 57 54
41 39 30 30 32 32 33 35 36 38 40 44 49 56 59 64 69 77 84 81 82 77 62 51 45 45 45 42 39 38 36 33 33 39 44 48 52 55 59 57 54 54 54 54
38 32 34 34 34 37 40 43 44 46 48 52 60 67 68 66 87 91 85 84 78 62 51 47 49 47 43 41 39 37 33 32 33 40 46 52 56 59 62 58 56 57 55 56
42 38 38 38 39 41 41 42 44 48 54 63 70 73 70 90 90 85 86 79 64 51 50 51 48 45 43 40 37 30 31 33 37 46 51 57 63 66 68 62 60 59 59 58
45 38 39 38 39 40 43 46 49 54 62 70 76 77 92 86 87 87 78 65 53 55 53 51 47 44 41 36 30 29 31 35 45 51 57 63 69 70 70 64 61 62 61 61
42 44 46 46 48 51 53 56 62 69 75 80 84 91 91 90 87 79 66 58 59 56 52 47 43 40 36 30 30 33 37 44 52 57 62 68 75 74 66 61 60 62 64 63
54 56 57 59 60 60 63 65 71 78 83 91 97 94 89 87 82 66 62 61 57 52 46 43 39 33 32 33 36 40 44 52 56 63 69 74 80 77 69 65 60 62 68 65
62 63 62 62 63 67 73 80 86 88 96 98 94 90 92 79 67 64 62 58 51 47 44 40 35 33 33 35 40 44 50 55 62 68 76 80 81 75 72 73 72 68 70 66
62 63 66 73 79 84 86 88 95 98 98 91 95 89 75 70 66 64 57 52 49 46 41 37 36 34 35 41 46 48 55 60 66 73 80 83 78 75 75 75 74 74 73 71
78 79 82 85 89 92 93 95 96 97 97 92 82 75 72 70 66 57 53 50 47 43 41 39 36 38 42 47 50 53 58 63 68 75 82 86 80 80 79 76 75 72 73 74
86 87 89 92 93 93 93 95 97 91 83 79 74 72 68 64 57 53 50 46 43 42 42 39 42 46 49 54 56 59 64 69 70 76 82 88 86 83 86 86 82 73 65 67
87 88 90 91 92 92 89 86 82 77 73 72 68 64 60 57 53 49 46 42 41 39 40 47 52 56 57 59 62 64 70 74 74 77 83 87 89 90 92 94 93 87 73 64
86 84 81 81 81 81 80 77 74 72 69 66 63 58 54 51 48 44 43 39 41 47 48 53 60 63 64 64 66 70 77 79 79 79 83 88 91 94 95 96 97 97 97 82
82 82 81 81 80 77 74 72 69 66 62 59 54 50 46 44 44 42 41 42 41 55 59 60 62 66 68 70 68 73 77 81 82 85 88 92 93 94 97 97 97 98 98 98
79 78 76 74 71 69 66 62 56 52 49 47 46 44 40 37 41 45 48 56 50 55 59 61 63 66 71 72 75 77 80 81 84 88 91 93 95 96 96 98 98 99 99 98
76 72 66 61 56 51 46 44 44 43 41 40 41 45 48 48 48 53 46 45 47 51 56 59 67 67 72 74 74 81 84 83 82 85 86 85 85 88 89 91 95 97 94 94
64 56 48 43 41 39 36 36 38 41 43 45 49 55 58 54 43 46 49 48 51 55 59 59 62 65 69 74 80 85 86 85 83 81 75 70 68 68 72 77 83 86 87 91
44 40 38 38 39 41 42 43 43 46 47 45 45 44 44 47 50 39 43 46 52 56 60 67 71 73 75 81 84 85 83 79 77 71 63 58 56 56 60 66 73 79 82 86
41 41 42 42 42 42 41 39 36 35 36 35 34 39 38 40 42 46 48 51 56 61 68 74 75 80 81 86 85 85 81 74 66 57 54 55 55 56 59 65 72 79 84 88
38 39 40 42 44 43 41 40 39 38 39 39 36 36 39 42 48 54 59 59 64 68 73 76 79 81 84 87 86 84 79 69 60 57 58 56 55 56 59 67 76 79 86 91

GFSNGP_prec_cthk_033.txt.gz
RH
40 39 34 28 29 31 28 25 26 20 22 19 20 23 28 34 39 42 45 51 58 62 65 65 66 72 69 63 63 62 61 56 46 44 44 44 42 34 34 33 33 34 38 42
39 39 36 32 28 25 27 26 25 24 23 20 22 24 28 32 37 41 45 50 58 62 63 63 68 59 63 66 64 62 58 49 46 46 46 43 36 34 33 35 35 36 39 46
38 35 32 33 26 24 24 22 22 26 19 24 25 27 27 31 37 41 45 51 57 60 64 62 60 66 69 69 67 61 52 47 47 47 43 37 34 33 33 34 37 40 45 52
38 33 30 19 21 21 22 20 21 22 24 26 29 29 28 32 35 39 45 52 57 62 64 66 65 70 72 72 63 53 48 47 46 43 38 36 35 34 33 34 37 42 48 53
39 34 25 18 21 24 27 22 22 23 26 30 33 32 31 32 36 41 49 54 60 62 65 62 69 74 76 65 55 48 46 46 43 40 38 36 34 35 34 35 41 45 48 49
46 36 34 23 22 26 27 30 23 25 30 34 34 36 30 33 39 46 52 55 59 62 65 72 76 78 67 56 48 46 47 44 41 37 36 35 36 35 36 40 46 52 54 52
50 45 35 26 27 30 33 29 26 27 29 33 35 36 36 41 46 50 54 60 64 69 77 77 79 70 56 49 49 48 45 41 37 35 34 35 34 36 40 46 50 54 55 53
52 49 43 28 31 34 31 29 29 32 34 36 38 43 47 50 54 58 63 69 72 83 81 81 70 58 51 52 50 47 42 37 35 32 33 32 33 41 45 50 55 57 55 54
38 36 30 30 32 32 33 35 36 39 43 45 48 52 54 57 66 70 67 77 87 85 84 71 57 54 56 51 48 43 38 35 31 32 32 33 39 46 50 54 58 59 59 57
38 33 35 35 36 37 38 41 44 47 47 49 52 58 63 70 74 77 81 84 88 85 72 58 61 60 54 49 44 39 35 32 34 33 32 36 44 51 57 62 65 62 60 60
41 38 38 38 40 41 42 42 43 46 49 53 59 66 75 77 78 86 84 94 85 72 61 65 62 55 50 44 39 35 33 34 36 35 36 42 49 57 61 66 67 63 60 60
47 40 42 42 44 46 47 49 52 55 59 63 70 74 75 86 91 92 93 84 69 67 68 63 55 50 44 39 37 35 36 37 36 37 41 48 54 62 67 69 66 61 60 58
48 50 51 53 56 58 60 62 62 65 66 70 74 82 88 93 98 94 82 72 70 69 62 55 49 45 42 39 38 38 38 37 39 41 48 53 60 66 72 73 67 63 64 63
61 62 63 65 65 64 64 65 67 72 80 86 91 94 98 98 91 79 72 73 70 63 59 52 46 44 42 41 40 40 40 40 45 48 53 59 66 71 76 75 72 70 68 69
65 67 68 68 71 74 77 82 85 89 95 96 97 98 95 89 81 78 76 71 64 60 52 48 46 46 44 43 42 39 41 43 48 52 56 64 70 76 77 75 74 74 74 70
66 72 79 82 85 87 89 90 93 97 96 96 96 91 85 82 80 76 70 65 58 52 51 48 47 48 47 44 41 42 45 48 53 58 61 66 73 78 80 74 77 79 78 73
83 84 88 91 93 93 94 94 94 94 92 91 88 83 79 76 73 68 63 56 52 50 49 50 49 49 46 46 47 48 50 51 55 61 69 72 75 82 85 80 81 85 84 79
88 89 89 89 88 87 88 88 85 83 82 81 78 75 73 68 64 59 55 52 50 49 50 50 48 46 50 54 54 54 56 60 60 62 73 79 79 83 88 89 90 91 92 90
83 81 81 79 79 79 79 79 77 77 74 74 71 67 64 59 56 52 50 48 49 46 43 50 52 54 57 60 62 59 61 68 70 68 73 81 84 86 88 90 92 94 95 94
80 79 77 76 74 73 72 70 71 69 66 62 58 53 50 48 47 46 46 41 43 49 49 50 54 55 58 61 64 66 66 70 76 74 79 82 87 90 93 93 95 96 97 97
75 74 70 67 65 65 64 62 56 51 49 48 47 45 43 39 37 40 42 42 44 49 49 47 46 49 54 60 60 63 68 72 77 79 84 86 87 90 92 94 94 93 94 96
76 72 68 63 59 53 49 45 42 41 39 36 37 38 38 39 43 45 47 53 46 49 47 45 47 50 56 62 62 61 64 73 77 81 85 87 86 86 87 84 83 84 86 88
75 69 61 53 46 43 41 38 36 37 38 40 43 45 46 44 46 46 39 42 45 46 46 47 51 55 57 63 68 68 72 77 82 86 87 86 83 79 74 65 63 65 70 77
60 51 46 42 40 38 35 33 35 36 35 33 32 33 33 32 28 37 38 36 39 42 45 50 55 59 66 71 74 74 79 82 84 83 82 79 74 68 61 61 60 61 65 69
44 42 41 40 37 35 34 34 35 33 30 28 28 29 30 34 38 34 37 40 46 51 53 56 59 66 71 74 73 78 82 84 84 80 78 73 64 57 59 60 61 60 63 68
44 43 42 42 41 40 40 39 36 31 27 22 21 23 24 27 29 33 35 38 45 54 60 65 67 71 75 75 76 80 84 86 84 79 76 69 62 60 63 64 64 66 70 69
48 48 50 48 46 45 42 34 27 23 22 22 21 23 24 24 25 28 31 38 47 52 60 67 71 76 79 79 81 83 87 89 87 86 80 71 66 68 71 73 73 74 74 74

GFSNGP_prec_cthk_039.txt.gz
RH
30 36 36 38 36 35 35 30 31 24 26 22 21 20 20 22 23 27 30 32 37 42 46 51 51 53 56 60 66 69 71 63 62 61 56 55 60 58 56 52 51 53 48 46
36 33 30 31 30 30 28 26 25 24 24 21 23 20 21 20 24 28 35 35 38 41 47 49 50 55 59 63 67 65 66 70 68 59 57 60 62 58 55 54 55 51 54 48
38 33 31 36 28 27 26 26 26 27 24 27 27 24 24 24 29 29 31 35 39 43 47 49 52 55 62 64 63 69 74 70 64 60 61 64 61 59 57 54 53 50 46 45
44 42 53 24 23 22 23 23 24 26 24 25 25 28 28 28 30 33 33 36 40 44 49 53 58 60 61 64 66 74 73 68 59 66 68 65 64 60 55 57 52 49 48 43
56 37 30 25 22 24 25 24 26 25 24 24 25 25 27 34 32 33 36 41 46 50 54 57 56 58 62 69 70 78 74 65 72 73 68 64 59 57 59 52 47 46 44 46
41 55 61 33 27 25 26 30 28 26 26 25 26 31 35 37 36 35 40 43 49 54 53 54 58 63 68 75 78 80 69 81 71 66 65 57 55 57 53 48 46 43 45 49
51 58 43 33 30 27 31 36 30 26 26 29 31 37 38 37 41 43 46 49 52 55 58 65 70 74 81 84 83 76 83 73 69 64 55 55 51 49 50 48 47 43 44 50
54 61 53 28 27 30 36 29 31 32 33 36 39 42 41 41 45 48 53 57 60 64 65 66 81 91 90 83 75 85 73 70 65 59 56 50 51 53 49 50 47 48 47 51
37 42 36 30 31 32 32 32 35 37 39 41 43 45 48 49 53 58 63 63 63 65 80 85 91 93 86 80 85 77 71 63 60 56 58 58 57 52 47 47 48 50 53 58
33 33 34 35 35 37 38 40 41 42 43 46 49 53 61 61 63 63 62 66 77 86 95 95 94 81 79 86 75 69 64 63 61 59 59 58 57 51 47 48 48 51 56 62
38 38 37 40 44 45 44 46 49 52 56 57 61 64 65 63 67 72 80 86 93 95 95 90 86 90 81 78 71 63 66 65 61 57 55 55 49 47 49 48 50 56 60 64
46 45 44 47 52 49 51 54 58 62 64 61 63 66 72 78 84 89 93 95 95 92 91 91 84 82 79 71 67 66 61 55 54 50 49 48 47 43 45 48 53 58 63 65
50 49 51 53 52 55 58 62 62 60 61 65 74 80 86 92 93 93 92 90 91 92 90 88 82 75 71 64 58 51 48 45 46 46 43 42 44 46 49 51 54 61 66 67
52 54 61 62 65 67 66 66 66 69 76 82 87 88 90 89 90 90 92 91 87 84 80 72 67 62 58 50 49 50 47 46 47 47 49 48 47 52 55 57 58 64 69 71
60 63 66 67 67 68 71 75 78 82 86 86 84 82 83 84 83 83 82 76 68 63 57 56 52 47 48 46 44 44 44 46 49 51 52 53 53 54 58 61 63 66 76 78
67 67 67 68 71 77 81 83 83 84 84 82 81 80 79 75 69 63 57 53 49 45 45 44 39 36 38 38 41 45 50 52 54 55 55 55 58 61 64 66 67 70 75 87
67 68 73 81 84 85 85 84 83 81 79 77 66 58 50 43 40 41 38 37 40 36 35 34 32 31 33 37 44 47 53 57 61 61 61 62 61 62 63 72 73 75 79 88
79 86 88 86 85 84 84 78 73 67 58 47 39 35 33 31 29 29 30 30 27 27 30 32 34 36 38 42 48 50 52 56 57 54 56 62 64 66 68 68 74 81 83 88
87 87 86 86 84 76 69 61 50 41 34 32 31 28 27 26 26 28 30 31 32 32 37 44 46 46 46 45 49 50 52 52 53 54 59 63 65 61 64 72 74 83 85 91
87 83 76 70 61 57 51 41 37 34 31 27 25 26 26 30 32 33 32 30 33 40 39 37 35 39 35 39 44 56 59 52 54 58 61 65 69 68 71 74 81 84 87 92
78 73 65 60 54 46 41 38 34 29 28 29 30 29 30 30 29 28 29 31 31 36 35 32 31 30 37 39 42 47 55 60 68 63 67 69 72 74 75 79 83 89 91 94
75 67 62 54 50 46 40 33 31 29 28 29 31 32 31 31 31 32 32 33 32 29 27 25 30 33 34 34 41 46 51 60 67 69 70 71 73 75 79 83 88 91 92 96
75 63 55 53 45 37 34 32 31 32 32 33 34 34 33 33 36 33 30 32 29 29 28 26 30 32 33 38 49 57 60 67 70 71 74 75 75 77 82 85 88 90 88 86
64 57 46 39 36 36 39 39 38 39 38 39 44 40 37 36 34 34 33 30 29 28 28 33 31 32 37 47 57 60 68 71 72 75 79 79 78 77 81 85 83 84 83 76
51 47 43 42 45 47 48 45 45 46 48 48 49 45 37 36 34 33 31 30 28 29 31 35 37 39 44 48 53 59 67 72 76 81 81 82 82 81 84 86 84 85 85 79
54 53 52 50 52 52 50 47 51 57 54 52 44 38 35 34 34 32 29 30 32 35 38 40 41 44 49 52 59 62 69 72 77 81 82 83 86 85 86 85 85 86 87 84
58 56 60 61 60 56 55 56 59 55 50 42 36 36 35 36 31 30 32 34 37 40 42 45 48 50 53 58 61 66 71 76 81 83 86 89 89 88 82 80 81 87 93 95

GFSNGP_prec_cthk_045.txt.gz
RH
33 28 29 40 42 44 52 49 53 46 43 35 33 37 36 36 35 35 36 40 43 47 52 64 68 72 75 75 72 67 67 71 74 73 73 75 79 89 79 72 74 78 67 73
30 29 31 34 35 33 41 38 35 37 39 40 40 39 38 36 35 35 38 39 39 45 54 55 61 65 69 62 60 66 69 74 69 71 75 78 87 84 78 80 82 75 74 70
37 32 35 40 27 25 24 25 29 32 36 36 36 36 34 32 32 32 31 31 36 43 48 52 56 61 58 59 64 65 69 70 75 76 77 93 89 85 87 85 75 80 79 76
52 49 48 32 27 26 29 30 31 32 32 33 34 34 33 33 31 31 31 32 34 38 44 49 49 53 58 63 66 69 74 76 73 81 93 92 92 91 83 83 81 81 75 69
62 59 43 35 32 30 31 33 30 29 30 31 32 33 33 32 32 33 33 34 35 36 40 46 52 57 62 69 72 74 76 81 89 94 93 94 88 85 84 80 76 73 71 66
65 59 54 42 35 32 31 43 34 32 33 33 31 38 38 34 34 35 36 38 38 40 44 50 59 65 68 71 76 83 88 94 96 96 93 89 89 82 80 73 66 63 62 63
65 61 51 39 37 35 41 45 39 36 33 31 32 34 37 39 41 41 41 43 46 52 58 61 64 69 79 85 88 92 97 97 96 94 92 83 77 74 66 63 59 58 54 52
66 66 58 38 37 40 42 36 34 33 33 32 34 36 40 43 41 40 46 54 61 64 65 70 77 81 86 89 93 94 96 93 92 85 77 71 64 61 54 52 50 49 46 44
52 53 39 33 36 35 34 36 38 37 36 35 37 42 43 44 46 50 54 58 62 67 74 80 85 88 91 91 91 91 88 82 72 64 54 53 54 48 44 43 43 42 43 45
41 40 39 39 37 36 36 38 40 39 39 41 43 46 50 54 56 58 61 64 69 72 77 82 84 86 84 82 78 70 68 59 49 41 38 40 37 38 37 39 42 44 46 48
42 43 42 44 43 42 42 43 42 42 44 46 48 52 56 60 65 68 69 70 74 79 83 81 77 73 68 59 49 43 37 30 28 26 26 28 29 33 38 44 48 49 50 51
45 40 41 46 46 47 48 49 46 46 48 53 55 58 62 66 69 72 76 81 82 78 74 67 60 49 39 32 26 22 22 22 21 23 27 30 33 35 45 50 52 55 57 56
42 42 44 49 51 52 50 50 51 53 57 58 62 67 69 72 75 79 78 75 69 61 53 44 32 23 22 22 21 21 23 24 25 28 32 36 41 45 44 42 51 53 56 59
50 49 52 52 54 53 54 57 58 59 61 63 66 67 69 72 73 72 68 58 48 36 28 24 22 22 24 25 25 26 28 30 32 36 41 44 49 55 61 62 55 51 51 62
53 53 54 55 58 60 61 60 60 62 65 67 70 72 74 73 68 59 47 38 32 25 22 20 21 21 23 25 27 30 35 39 45 49 50 54 58 63 66 68 70 66 51 55
60 59 60 64 66 67 65 66 68 72 75 75 74 72 67 60 48 39 33 27 23 21 21 21 24 27 30 32 33 36 41 46 48 50 49 48 48 52 61 69 69 69 59 60
63 67 68 67 68 71 72 74 77 77 75 69 64 60 53 45 38 33 29 24 20 19 21 25 27 27 28 29 30 31 32 31 31 31 29 33 36 42 52 66 66 66 59 61
69 71 72 71 73 76 79 78 78 70 66 64 58 52 45 38 31 25 22 20 19 22 24 26 26 25 25 25 27 30 32 33 30 26 23 22 28 38 49 67 79 77 72 65
75 75 77 79 79 78 78 73 72 69 66 60 53 45 38 31 25 22 21 20 22 27 27 29 28 25 25 31 34 31 28 25 25 24 26 30 36 36 51 79 80 83 77 74
79 80 79 81 86 78 78 77 72 67 61 53 46 39 30 26 24 23 24 29 32 34 32 28 28 29 33 32 29 28 30 30 35 37 42 48 53 49 48 74 88 82 80 79
82 85 86 79 79 80 78 76 70 61 54 46 35 29 28 27 27 29 30 35 35 36 34 33 33 33 31 28 27 27 29 33 37 42 49 57 59 63 72 81 83 84 82 77
82 84 85 84 81 79 77 69 60 52 40 32 31 32 32 32 34 35 39 39 38 36 33 32 31 28 27 26 26 29 32 35 39 44 48 52 60 65 71 79 81 82 80 78
91 90 89 85 82 77 68 57 45 36 35 35 36 37 37 40 42 42 41 39 37 34 31 30 29 26 24 26 28 32 35 39 42 46 51 57 60 64 68 76 82 83 86 84
91 93 91 85 73 64 54 42 39 41 42 42 43 44 47 45 44 39 38 36 35 32 30 30 29 28 28 30 32 34 37 39 42 48 55 59 63 69 71 73 77 82 88 89
93 88 78 70 63 51 48 46 46 47 49 50 52 52 46 43 39 38 36 34 34 34 31 30 31 32 34 35 37 38 40 44 47 51 56 61 67 71 75 80 83 85 90 90
79 74 68 58 55 55 53 53 55 56 56 59 56 47 37 41 40 37 35 35 33 31 31 32 33 36 37 38 40 42 46 50 56 61 64 68 69 71 77 81 86 90 93 93
73 65 63 65 67 64 61 66 65 63 62 57 45 40 41 41 37 35 35 33 31 31 33 34 37 38 39 41 44 47 51 56 61 66 71 75 78 80 78 81 86 91 93 96

GFSNGP_prec_cthk_048.txt.gz
RH
39 36 35 38 36 37 42 49 55 45 45 41 40 38 36 37 35 32 36 39 41 46 51 56 61 60 65 71 77 83 87 83 77 81 74 74 78 80 82 83 88 86 76 79
42 40 40 35 30 32 32 39 43 45 41 41 39 38 36 35 36 35 37 38 41 48 51 51 57 60 67 73 81 82 79 71 77 80 73 80 82 88 90 94 91 86 86 88
42 35 31 37 25 25 28 31 33 39 44 42 42 39 39 40 40 42 43 42 38 36 39 45 49 59 66 73 72 66 68 75 77 77 80 84 90 91 95 92 92 90 83 81
43 34 42 27 24 24 26 27 28 30 32 34 35 40 41 41 39 38 37 36 34 35 35 39 43 45 48 54 57 67 74 74 75 79 87 91 93 92 94 91 85 81 78 73
47 48 40 34 31 30 31 37 34 35 36 38 40 39 40 40 38 37 36 36 33 33 35 38 41 47 55 62 69 72 76 82 85 90 91 95 97 94 88 83 76 70 62 55
66 62 61 42 35 35 36 47 38 37 39 38 36 41 44 42 38 35 33 34 35 36 37 42 51 59 64 68 72 79 85 88 89 92 96 93 87 80 70 66 54 47 41 41
65 63 51 40 36 38 41 39 40 41 41 41 42 38 36 35 33 35 36 36 39 44 50 57 62 64 69 73 80 85 89 91 97 92 84 77 65 57 51 41 33 29 29 31
63 64 52 39 37 39 40 43 44 41 37 34 33 34 34 35 35 38 42 46 52 56 61 65 69 74 80 91 96 95 95 89 83 75 63 49 39 28 25 24 25 28 31 32
53 52 43 40 39 42 39 37 35 37 39 35 34 35 37 40 44 47 52 56 61 63 68 71 73 81 83 85 85 82 75 68 55 43 31 21 19 20 22 24 27 30 34 37
46 51 46 42 37 36 36 38 40 39 40 38 38 40 42 47 51 56 59 62 66 69 71 75 79 80 80 75 68 59 51 40 26 18 16 17 18 20 22 26 31 35 39 42
51 50 45 43 40 39 40 41 44 44 42 42 42 45 49 53 55 58 64 69 71 74 77 79 78 72 63 54 44 33 21 16 15 16 17 18 21 24 29 35 42 45 47 49
48 45 44 45 45 46 46 49 49 47 48 48 50 53 55 59 62 67 73 73 75 76 74 68 60 52 40 30 22 19 17 18 19 21 24 27 31 32 38 46 51 56 60 62
43 43 43 47 50 52 54 55 55 53 53 54 57 60 62 68 72 72 75 72 69 66 58 50 40 32 25 21 19 20 21 22 24 27 30 34 39 46 49 44 52 57 66 70
42 45 50 52 55 57 58 59 57 59 62 63 63 64 67 70 72 71 68 66 60 51 40 32 27 23 20 19 20 22 25 29 32 34 38 42 48 53 58 58 53 49 53 59
52 52 54 58 62 62 60 59 63 66 66 65 65 67 71 71 67 64 60 55 47 38 32 28 24 22 20 20 20 21 22 23 24 25 27 33 38 40 40 40 41 41 39 48
61 61 64 65 65 64 66 69 69 68 68 67 71 71 66 62 59 57 52 46 37 32 28 25 20 19 21 22 20 19 18 19 22 26 29 31 30 28 25 27 33 44 44 58
69 71 71 72 72 74 75 75 73 73 74 74 66 62 61 59 56 52 46 39 34 28 25 23 22 23 23 20 18 19 22 24 25 26 28 28 28 29 29 30 33 33 42 69
76 75 74 75 78 80 81 80 78 76 72 65 65 64 61 58 54 48 40 34 29 26 24 24 25 23 21 21 23 23 23 24 25 27 29 32 33 36 42 44 44 44 52 75
78 78 82 82 81 81 81 80 77 72 70 69 67 63 61 57 50 40 33 27 24 25 26 28 27 24 24 24 23 23 24 24 24 26 29 32 37 44 46 49 50 56 75 81
84 85 84 83 84 85 81 77 74 75 74 69 67 64 59 47 38 32 28 27 30 31 32 29 26 24 24 24 24 25 24 23 25 27 28 32 37 44 51 56 62 73 83 89
86 86 87 89 85 80 81 82 80 76 72 69 66 56 44 40 36 32 31 33 34 34 32 28 25 24 24 25 24 24 23 24 27 29 31 33 37 41 46 54 61 74 83 83
88 90 86 84 89 91 87 82 77 75 71 66 54 46 45 40 36 35 36 37 36 32 30 27 27 27 26 24 23 23 25 27 29 31 33 36 40 43 47 53 57 66 72 79
90 90 93 92 88 85 83 79 76 73 64 54 50 48 43 40 41 41 41 37 34 32 31 32 30 27 25 23 24 25 28 31 32 34 37 41 44 47 51 56 61 67 72 78
97 96 92 90 91 87 82 79 71 62 57 54 49 46 46 47 47 44 39 36 33 34 34 31 29 27 26 27 27 30 32 33 35 38 42 46 50 54 58 60 64 70 74 81
97 97 96 93 89 83 75 67 63 57 52 51 52 52 51 50 47 41 38 37 37 34 32 31 30 30 30 31 32 34 35 37 39 43 46 51 55 59 63 67 68 70 78 81
98 96 93 86 80 74 68 62 57 58 59 59 59 59 56 48 43 41 40 37 36 35 32 31 32 34 35 34 36 38 39 41 44 48 51 55 58 62 67 71 74 75 73 79
89 86 83 80 74 71 69 66 64 64 66 68 68 63 52 46 43 41 39 38 37 34 33 34 36 38 38 37 39 42 44 46 49 50 51 51 54 56 58 61 68 76 79 76

GFSNGP_prec_cthk_051.txt.gz
RH
47 47 42 41 55 55 50 46 47 40 40 40 37 37 38 31 29 32 33 36 39 42 46 49 53 54 59 68 75 76 80 86 90 90 79 84 85 84 82 84 88 91 91 92
53 49 45 37 40 42 43 41 36 34 35 36 37 34 34 33 34 37 38 38 39 43 47 46 51 57 58 57 66 74 84 89 83 77 76 80 87 80 83 89 91 94 94 93
64 58 50 54 38 37 36 31 27 30 28 32 36 39 39 39 38 38 41 41 41 40 38 41 44 48 53 55 57 67 68 70 72 76 78 80 81 85 90 94 93 95 91 82
65 60 59 32 31 27 26 23 21 23 24 27 29 33 43 46 41 40 41 39 38 38 37 36 36 36 39 43 50 54 61 66 75 77 79 85 90 92 95 97 95 88 75 59
61 59 40 30 26 25 26 30 30 30 32 34 35 37 40 39 38 38 38 38 37 36 36 36 38 42 44 53 63 69 69 70 73 79 87 92 94 95 96 87 74 58 44 29
57 55 55 38 34 37 39 44 35 35 36 37 39 42 41 40 40 40 39 35 34 33 33 36 40 46 53 60 63 64 68 74 84 95 97 96 91 86 79 63 45 26 20 20
65 69 61 50 37 44 43 34 37 42 44 44 44 42 43 44 40 35 33 34 35 38 39 43 48 53 58 61 66 71 80 91 98 95 93 89 78 60 47 29 20 18 19 20
73 64 55 35 35 38 38 39 40 45 47 48 48 46 40 36 36 36 38 40 42 45 49 52 56 61 65 70 82 88 91 92 91 84 72 58 46 31 21 19 19 19 20 22
66 56 41 37 37 38 39 41 47 48 46 40 37 37 38 38 40 41 43 46 50 53 55 59 65 69 76 81 82 84 81 74 65 54 43 30 21 18 17 18 19 20 24 26
60 46 42 42 41 42 44 43 41 37 37 35 37 40 40 43 44 48 52 54 56 59 64 68 71 74 75 76 75 71 63 53 41 30 21 17 16 17 18 20 23 25 29 35
56 43 39 39 39 39 38 38 39 40 40 42 43 46 47 48 52 56 58 59 62 66 71 75 76 75 73 69 62 53 41 29 22 19 18 17 19 21 24 26 32 36 40 49
43 36 34 37 39 39 38 39 41 43 47 50 51 51 52 55 59 62 61 65 71 76 77 73 69 66 62 53 42 32 25 21 19 18 18 20 22 21 25 31 35 43 52 65
38 38 39 43 44 42 42 43 47 51 53 56 58 57 59 64 66 66 67 73 76 73 67 63 59 53 43 35 30 25 21 20 20 21 23 25 25 25 23 20 25 26 30 38
39 42 48 46 46 48 50 51 54 58 61 62 61 66 70 70 70 70 74 72 67 61 57 53 47 42 36 32 27 20 16 16 16 16 16 17 19 20 20 21 20 15 13 16
47 45 45 50 54 56 57 59 63 66 66 67 72 75 75 73 71 72 67 63 58 56 51 47 43 37 30 24 20 17 17 17 17 18 18 18 18 19 20 21 23 24 23 18
57 53 57 60 63 65 68 69 69 68 70 74 75 75 73 71 68 62 60 56 54 52 50 45 37 30 25 20 18 19 19 18 17 17 18 18 20 23 25 29 32 29 30 33
67 71 75 76 75 76 75 74 72 75 78 79 77 73 67 65 62 59 58 58 58 55 48 38 31 27 22 21 20 19 17 17 18 17 19 21 22 24 30 33 35 37 37 42
76 81 83 83 84 85 81 78 80 82 83 78 69 67 67 66 64 63 62 62 57 46 37 34 31 26 23 21 19 18 18 18 18 19 19 19 21 26 30 32 36 43 44 49
91 93 96 94 86 83 84 88 89 84 74 71 74 69 69 70 67 65 62 55 45 39 38 35 30 26 23 20 20 20 19 19 19 19 20 21 23 26 29 31 34 37 52 55
96 94 86 83 87 90 92 89 82 78 79 76 75 75 73 69 65 60 54 47 44 42 39 32 28 23 22 22 21 21 21 20 20 21 22 24 26 28 30 32 35 38 41 52
87 89 90 91 94 93 87 84 83 82 81 80 76 73 69 66 60 55 52 49 46 40 34 30 26 25 24 23 23 23 23 23 23 24 26 27 30 31 33 36 38 41 44 48
94 95 94 92 88 85 86 87 88 85 79 76 74 70 65 62 58 55 51 48 43 37 33 29 28 27 26 25 26 25 24 25 27 29 30 32 34 35 37 40 43 46 48 52
94 95 92 93 96 96 94 88 84 81 78 75 71 67 63 60 56 54 50 46 42 37 33 32 31 31 30 29 28 26 27 29 31 33 34 36 39 40 42 45 49 51 55 57
95 96 97 97 96 90 88 86 83 80 77 73 69 65 62 60 57 52 50 48 43 39 38 35 34 34 32 30 28 30 32 32 34 35 38 41 43 45 47 49 52 56 61 64
97 97 97 94 93 92 88 85 84 81 76 72 68 66 61 60 58 55 52 49 45 42 39 37 35 34 31 30 32 33 34 33 35 38 42 44 44 44 44 45 46 48 50 59
97 97 97 97 95 91 89 87 84 80 77 70 65 63 63 61 59 59 55 49 44 40 37 36 34 32 33 34 34 35 33 36 38 41 42 42 42 43 45 46 47 50 50 51
97 98 98 96 92 89 86 84 79 74 70 68 67 66 65 65 64 60 52 45 40 39 37 34 34 36 36 35 34 34 36 39 39 40 40 41 43 44 46 48 50 52 55 59